Regional Weather Roundup
Issued by NWS State College, PA

Home | Current Version | Previous Version | Text Only | Print | Product List | Glossary Off
Versions: 1 2 3 4 5 6 7 8 9 10 11 12 13 14 15 16 17 18 19 20 21 22 23 24 25 26 27 28 29 30 31 32 33 34 35 36 37 38 39 40 41 42 43 44 45 46 47 48 49 50

000
ASUS41 KCTP 140503
RWRCTP

REGIONAL WEATHER ROUNDUP
NATIONAL WEATHER SERVICE STATE COLLEGE PA
100 AM EDT MON JUL 14 2014

Note: "fair" indicates few or no clouds below 12,000 feet with no
significant weather and/or obstructions to visibility.

* = STATION THAT DOES NOT REPORT PRECIPITATION /E.G. RAIN...SNOW...ETC/
    THUNDER OR FOG.

PAZ002>004-007>009-013>016-020>023-029>032-140600-
WESTERN PENNSYLVANIA

CITY           SKY/WX    TMP DP  RH WIND       PRES   REMARKS
ERIE           CLEAR     71  62  73 S8        29.89S
MEADVILLE      CLEAR     67  62  84 S3        29.94S
FRANKLIN*      CLOUDY    68  64  88 S8        29.97S VSB 1/2
NEW CASTLE       N/A     69  69 100 CALM      29.95S
BEAVER COUNTY  NOT AVBL
BUTLER*        PTCLDY    66  64  94 S3        29.97S
PITTSBURGH INT CLOUDY    73  69  87 SW6       29.95F
PITTSBURGH     CLOUDY    71  68  90 S6        29.96S
INDIANA*       CLOUDY    70  68  94 SW6       30.01S FOG
LATROBE        CLOUDY    72  72 100 S8        29.98S
WASHINGTON CO* MOCLDY    70  66  88 SW3       29.97S
$$

PAZ004>006-010>012-017>019-024>028-033>037-041-042-045-046-049>053-140600-
CENTRAL PENNSYLVANIA

CITY           SKY/WX    TMP DP  RH WIND       PRES   REMARKS
BRADFORD       MOCLDY    68  65  90 SW5       29.97R
DUBOIS         FOG       69  67  93 SW7       29.96S VSB 1/4
CLEARFIELD     CLOUDY    69  68  96 SW5       29.96F
JOHNSTOWN      CLOUDY    67  65  93 SW7       30.01S
ALTOONA        MOCLDY    69  67  93 S5        29.98S
STATE COLLEGE  PTCLDY    67  67  99 CALM      29.95S FOG
WILLIAMSPORT   CLOUDY    71  68  90 E3        29.91S
SELINSGROVE    MOCLDY    69  68  96 CALM      29.93S
FT INDIANTOWN  CLOUDY    72  72 100 S3        29.93F
CAPITAL CITY   CLOUDY    70  67  90 CALM      29.93F
HARRISBURG     CLOUDY    73  68  84 W5        29.92F
YORK           CLOUDY    70  68  93 CALM      29.93F
$$

PAZ038>040-043-044-047-048-054-055-060>062-067>071-140600-
EASTERN PENNSYLVANIA

CITY           SKY/WX    TMP DP  RH WIND       PRES   REMARKS
SCRANTON       CLOUDY    71  67  87 SW3       29.93S
MOUNT POCONO   CLOUDY    67  64  90 W8        29.97S
ALLENTOWN      CLOUDY    71  69  93 SW5       29.93S
QUAKERTOWN*    CLOUDY    72  70  94 S5        29.95S
READING        CLOUDY    73  70  90 S5        29.92S
LANCASTER      CLOUDY    70  67  90 SW5       29.94S
COATESVILLE    CLOUDY    68  68 100 CALM      29.96F
POTTSTOWN      CLOUDY    71  67  87 SW3       29.95F
BLUE BELL      CLOUDY    73  70  88 CALM      29.93S
DOYLESTOWN     LGT RAIN  70  70 100 S3        29.93F
WILLOW GROVE   NOT AVBL
NORTH PHILA    LGT RAIN  73  68  84 SW5       29.95F
PHILADELPHIA   LGT RAIN  75  68  78 SW10      29.94S
$$


USA.gov is the U.S. government's official web portal to all federal, state and local government web resources and services.